Regional Weather Roundup
Issued by NWS Sioux Falls, SD

Home | Current Version | Previous Version | Text Only | Print | Product List | Glossary On
Versions: 1 2 3 4 5 6 7 8 9 10 11 12 13 14 15 16 17 18 19 20 21 22 23 24 25 26 27 28 29 30 31 32 33 34 35 36 37 38 39 40 41 42 43 44 45 46 47 48 49 50
000
ASUS43 KFSD 210502
RWRFSD

WEATHER ROUNDUP FOR SE SOUTH DAKOTA/SW MINNESOTA/NW IOWA
NATIONAL WEATHER SERVICE SIOUX FALLS SD
1100 PM CST SAT DEC 20 2014

NOTE: "FAIR" INDICATES FEW OR NO CLOUDS BELOW 12,000 FEET WITH NO
SIGNIFICANT WEATHER AND OR OBSTRUCTIONS TO VISIBILITY.


SDZ038>040-050-052>070-210600-
SOUTHEAST SOUTH DAKOTA

CITY           SKY/WX    TMP DP  RH WIND       PRES   REMARKS
CHAMBERLAIN    NOT AVBL
HURON          CLOUDY    30  29  96 S13       29.92F FOG     WCI  20
MADISON        FOG       28  28 100 S20       29.94S VSB 1/4 WCI  15
MITCHELL       CLOUDY    32  30  92 S12       29.94F WCI  23
SIOUX FALLS    FOG       30  30 100 S10       29.97F VSB 1/2 WCI  21
WINNER         CLOUDY    36  27  69 SW7       29.87F
YANKTON        CLOUDY    32  28  86 SE8       29.98S WCI  25
$$

MNZ071-072-080-081-089-090-097-098-210600-
SOUTHWEST MINNESOTA

CITY           SKY/WX    TMP DP  RH WIND       PRES   REMARKS
FAIRMONT       CLOUDY    32  28  86 S13       30.02F WCI  22
JACKSON        CLOUDY    32  30  93 S12       30.00F WCI  23
LUVERNE        CLOUDY    32  32 100 S13       29.99S FOG     WCI  22
MARSHALL       CLOUDY    30  27  86 S13       29.97F WCI  20
MONTEVIDEO     CLOUDY    30  30 100 S10G17    29.99S WCI  21
PIPESTONE      FOG       30  28  93 S6        29.95S VSB 1/4 WCI  24
REDWOOD FALLS  CLOUDY    32  29  88 S14       30.00F WCI  22
TRACY          CLOUDY    32  30  94 S10G17    29.97F FOG     WCI  23
WINDOM         CLOUDY    30  30 100 S12       30.00S FOG     WCI  21
WORTHINGTON    CLOUDY    30  30 100 S15G21    29.99S WCI  19
$$

IAZ001>003-012>014-020>022-031-032-NEZ013-014-SDZ071-210600-
NORTHWEST IOWA

CITY           SKY/WX    TMP DP  RH WIND       PRES   REMARKS
DENISON        CLOUDY    32  32 100 S3        30.02S FOG
ESTHERVILLE    CLOUDY    31  29  92 S15       30.01F WCI  20
SIOUX CITY     CLOUDY    33  31  92 S9        30.02F FOG     WCI  25
SPENCER        CLOUDY    32  29  88 S14       30.02S WCI  22
$$

ABBREVIATIONS USED IN REMARKS
   TC - TEMPERATURE IN CELSIUS
  WCI - WIND CHILL INDEX
   HX - HEAT INDEX
  VSB - VISIBILITY




USA.gov is the U.S. government's official web portal to all federal, state and local government web resources and services.